����,���ϕ���(m/s),���ϕ���,�ő�u�ԕ���(m/s),�ő啗��������,�C��(��),���x(%),10���Ԉړ��ώZ�J��(mm),1���Ԉړ��ώZ�J��(mm),���J��(mm),�݌v�J��(mm)
2022-12-19T00:00:00+09:00,3.2,���k��,6,���k��,-1.8,64.9,0,0,0.5,0.5
2022-12-19T00:01:00+09:00,3.3,���k��,6,���k��,-1.8,65,0,0,0,0.5
2022-12-19T00:02:00+09:00,3.3,���k��,6,���k��,-1.8,65.3,0,0,0,0.5
2022-12-19T00:03:00+09:00,3.2,���k��,6,���k��,-1.7,65.5,0,0,0,0.5
2022-12-19T00:04:00+09:00,3.4,���k��,6,���k��,-1.7,65.6,0,0,0,0.5
2022-12-19T00:05:00+09:00,3.5,���k��,6,���k��,-1.7,65.4,0,0,0,0.5
2022-12-19T00:06:00+09:00,3.5,���k��,6,���k��,-1.7,65.2,0,0,0,0.5
2022-12-19T00:07:00+09:00,3.5,���k��,6,���k��,-1.6,65.4,0,0,0,0.5
2022-12-19T00:08:00+09:00,3.5,���k��,6,���k��,-1.6,64.7,0,0,0,0.5
2022-12-19T00:09:00+09:00,3.3,���k��,6,���k��,-1.7,64.1,0,0,0,0.5
2022-12-19T00:10:00+09:00,3.2,���k��,6,���k��,-1.8,63.8,0,0,0,0.5
2022-12-19T00:11:00+09:00,3.1,�k��,5.9,���k��,-1.9,63.8,0,0,0,0.5
2022-12-19T00:12:00+09:00,3,�k��,5.9,���k��,-1.8,64.3,0,0,0,0.5
2022-12-19T00:13:00+09:00,2.8,�k��,5.4,���k��,-1.7,64.6,0,0,0,0.5
2022-12-19T00:14:00+09:00,2.5,�k�k��,4,�k�k��,-1.7,64.4,0,0,0,0.5
2022-12-19T00:15:00+09:00,2.4,�k�k��,4,�k�k��,-1.8,64.3,0,0,0,0.5
2022-12-19T00:16:00+09:00,2.3,�k�k��,4,�k�k��,-1.8,64.3,0,0,0,0.5
2022-12-19T00:17:00+09:00,2.2,�k�k��,4,�k�k��,-1.8,64.5,0,0,0,0.5
2022-12-19T00:18:00+09:00,2,�k�k��,4,�k�k��,-1.7,64.6,0,0,0,0.5
2022-12-19T00:19:00+09:00,1.8,�k�k��,4,�k�k��,-1.7,64.5,0,0,0,0.5
2022-12-19T00:20:00+09:00,1.6,�k,4,�k�k��,-1.7,64.5,0,0,0,0.5
2022-12-19T00:21:00+09:00,1.4,�k,3.6,�k,-1.7,64.3,0,0,0,0.5
2022-12-19T00:22:00+09:00,1.2,�k,3,���k��,-1.6,64.2,0,0,0,0.5
2022-12-19T00:23:00+09:00,1.1,�k,3,���k��,-1.8,63.6,0,0,0,0.5
2022-12-19T00:24:00+09:00,1.2,�k�k��,3,���k��,-1.8,63.4,0,0,0,0.5
2022-12-19T00:25:00+09:00,1.1,�k,3,���k��,-1.8,63.8,0,0,0,0.5
2022-12-19T00:26:00+09:00,1,�k,2.6,�k��,-1.8,64.1,0,0,0,0.5
2022-12-19T00:27:00+09:00,1,�k�k��,2.6,�k��,-1.9,64.1,0,0,0,0.5
2022-12-19T00:28:00+09:00,0.9,�k�k��,2.6,�k��,-2,64.1,0,0,0,0.5
2022-12-19T00:29:00+09:00,0.8,�k,2.6,�k��,-2,64.6,0,0,0,0.5
2022-12-19T00:30:00+09:00,0.8,�k,2.8,�k,-2,64.9,0,0,0,0.5
2022-12-19T00:31:00+09:00,1,�k,3,�k,-2,65,0,0,0,0.5
2022-12-19T00:32:00+09:00,1.3,�k,4.5,�k��,-2.1,65,0,0,0,0.5
2022-12-19T00:33:00+09:00,1.5,�k,5.4,�k��,-2.1,65.5,0,0,0,0.5
2022-12-19T00:34:00+09:00,1.8,�k,5.6,���k��,-2.1,66,0,0,0,0.5
2022-12-19T00:35:00+09:00,1.9,�k�k��,5.6,���k��,-2.1,66.2,0,0,0,0.5
2022-12-19T00:36:00+09:00,2,�k�k��,5.6,���k��,-2.1,66.5,0,0,0,0.5
2022-12-19T00:37:00+09:00,2,�k�k��,5.6,���k��,-2.1,66.7,0,0,0,0.5
2022-12-19T00:38:00+09:00,2,�k�k��,5.6,���k��,-2.1,66.9,0,0,0,0.5
2022-12-19T00:39:00+09:00,2.1,�k�k��,5.6,���k��,-2.1,66.9,0,0,0,0.5
2022-12-19T00:40:00+09:00,2.1,�k�k��,5.6,���k��,-2,67.1,0,0,0,0.5
2022-12-19T00:41:00+09:00,1.9,�k�k��,5.6,���k��,-1.9,67.2,0,0,0,0.5
2022-12-19T00:42:00+09:00,1.9,�k�k��,5.6,���k��,-1.9,67.1,0,0,0,0.5
2022-12-19T00:43:00+09:00,1.6,�k�k��,5.6,���k��,-1.9,67,0,0,0,0.5
2022-12-19T00:44:00+09:00,1.3,�k�k��,4.6,�k��,-1.8,66.8,0,0,0,0.5
2022-12-19T00:45:00+09:00,1.2,�k,4.6,�k��,-1.8,66.6,0,0,0,0.5
2022-12-19T00:46:00+09:00,1.2,�k,4.6,�k��,-1.8,66.1,0,0,0,0.5
2022-12-19T00:47:00+09:00,1.3,�k,4.6,�k��,-1.9,65.6,0,0,0,0.5
2022-12-19T00:48:00+09:00,1.3,�k�k��,4.6,�k��,-2,65.1,0,0,0,0.5
2022-12-19T00:49:00+09:00,1.3,�k�k��,4.6,�k��,-2.1,65.1,0,0,0,0.5
2022-12-19T00:50:00+09:00,1.3,�k��,4.6,�k��,-2,65.4,0,0,0,0.5
2022-12-19T00:51:00+09:00,1.3,�k��,4.6,�k��,-2,65.6,0,0,0,0.5
2022-12-19T00:52:00+09:00,1,�k��,3,���k��,-2,65.8,0,0,0,0.5
2022-12-19T00:53:00+09:00,0.9,�k��,2.3,���k��,-2,65.5,0,0,0,0.5
2022-12-19T00:54:00+09:00,0.8,�k��,2.3,���k��,-2,65.4,0,0,0,0.5
2022-12-19T00:55:00+09:00,0.7,�k��,2.3,���k��,-2,65.5,0,0,0,0.5
2022-12-19T00:56:00+09:00,0.6,�k��,1.8,�k��,-2.2,65.2,0,0,0,0.5
2022-12-19T00:57:00+09:00,0.6,�k��,1.8,�k��,-2.2,65.1,0,0,0,0.5
2022-12-19T00:58:00+09:00,0.7,�k�k��,2.5,�k�k��,-2.3,65.2,0,0,0,0.5
2022-12-19T00:59:00+09:00,0.8,�k�k��,2.5,�k�k��,-2.2,65.9,0,0,0,0.5
2022-12-19T01:00:00+09:00,0.8,�k,2.5,�k�k��,-2,66.7,0,0,0,0.5
2022-12-19T01:01:00+09:00,0.9,�k,2.5,�k�k��,-1.9,66.8,0,0,0,0.5
2022-12-19T01:02:00+09:00,0.9,�k�k��,2.5,�k�k��,-1.8,66.4,0,0,0,0.5
2022-12-19T01:03:00+09:00,1,�k�k��,2.5,�k�k��,-1.8,66.2,0,0,0,0.5
2022-12-19T01:04:00+09:00,1.2,�k�k��,2.5,�k�k��,-1.8,65.9,0,0,0,0.5
2022-12-19T01:05:00+09:00,1.4,�k��,2.7,���k��,-1.8,65.6,0,0,0,0.5
2022-12-19T01:06:00+09:00,1.4,�k��,2.7,���k��,-1.8,65.5,0,0,0,0.5
2022-12-19T01:07:00+09:00,1.4,�k��,2.7,���k��,-1.7,65.5,0,0,0,0.5
2022-12-19T01:08:00+09:00,1.3,�k��,2.7,���k��,-1.7,65.3,0,0,0,0.5
2022-12-19T01:09:00+09:00,1.2,�k��,2.7,���k��,-1.8,65.1,0,0,0,0.5
2022-12-19T01:10:00+09:00,1.2,�k��,2.7,���k��,-1.9,65.1,0,0,0,0.5
2022-12-19T01:11:00+09:00,1.2,�k��,2.7,���k��,-1.9,65.4,0,0,0,0.5
2022-12-19T01:12:00+09:00,1.2,�k��,2.7,���k��,-2,65.7,0,0,0,0.5
2022-12-19T01:13:00+09:00,1.1,�k��,2.7,���k��,-2,65.9,0,0,0,0.5
2022-12-19T01:14:00+09:00,1.1,�k�k��,2.7,���k��,-2.2,65.8,0,0,0,0.5
2022-12-19T01:15:00+09:00,1,�k�k��,2.5,���k��,-2.2,66.1,0,0,0,0.5
2022-12-19T01:16:00+09:00,0.9,�k�k��,2.2,�k��,-2.2,66.5,0,0,0,0.5
2022-12-19T01:17:00+09:00,0.9,�k�k��,2.2,�k��,-2.4,66.6,0,0,0,0.5
2022-12-19T01:18:00+09:00,0.9,�k�k��,2.7,�k�k��,-2.4,66.7,0,0,0,0.5
2022-12-19T01:19:00+09:00,1,�k,3,�k�k��,-2.3,67.9,0,0,0,0.5
2022-12-19T01:20:00+09:00,1,�k,3,�k�k��,-2.3,68.4,0,0,0,0.5
2022-12-19T01:21:00+09:00,1,�k,3,�k�k��,-2.3,68.6,0,0,0,0.5
2022-12-19T01:22:00+09:00,1,�k�k��,3,�k�k��,-2.2,69,0,0,0,0.5
2022-12-19T01:23:00+09:00,1.1,�k�k��,3,�k�k��,-2.2,69.5,0,0,0,0.5
2022-12-19T01:24:00+09:00,1.2,�k�k��,3.8,���k��,-2.2,69.7,0,0,0,0.5
2022-12-19T01:25:00+09:00,1.3,�k�k��,3.8,���k��,-2.2,69.8,0,0,0,0.5
2022-12-19T01:26:00+09:00,1.3,�k�k��,3.8,���k��,-2.1,69.8,0,0,0,0.5
2022-12-19T01:27:00+09:00,1.4,�k��,3.8,���k��,-2.1,69.6,0,0,0,0.5
2022-12-19T01:28:00+09:00,1.3,�k��,3.8,���k��,-2.1,69.7,0,0,0,0.5
2022-12-19T01:29:00+09:00,1.3,�k��,3.8,���k��,-2.2,69.2,0,0,0,0.5
2022-12-19T01:30:00+09:00,1.3,�k�k��,3.8,���k��,-2.3,68.9,0,0,0,0.5
2022-12-19T01:31:00+09:00,1.3,�k�k��,3.8,���k��,-2.3,68.9,0,0,0,0.5
2022-12-19T01:32:00+09:00,1.3,�k�k��,3.8,���k��,-2.2,69.2,0,0,0,0.5
2022-12-19T01:33:00+09:00,1.3,�k,3.8,���k��,-2.2,69.2,0,0,0,0.5
2022-12-19T01:34:00+09:00,1.1,�k,3.3,�k��,-2.2,69,0,0,0,0.5
2022-12-19T01:35:00+09:00,1,�k,2.1,�k,-2.1,68.8,0,0,0,0.5
2022-12-19T01:36:00+09:00,1,�k,2.1,�k,-2,69,0,0,0,0.5
2022-12-19T01:37:00+09:00,1,�k�k��,2.1,�k,-2,69,0,0,0,0.5
2022-12-19T01:38:00+09:00,1,�k�k��,2.1,�k,-2.1,68.3,0,0,0,0.5
2022-12-19T01:39:00+09:00,1,�k,2.1,�k,-2.2,67.8,0,0,0,0.5
2022-12-19T01:40:00+09:00,1,�k,2.1,�k,-2.1,68.2,0,0,0,0
2022-12-19T01:41:00+09:00,0.9,�k,2.1,�k,-2.1,68.5,0,0,0,0
2022-12-19T01:42:00+09:00,0.9,�k,2.1,�k,-2.1,68.7,0,0,0,0
2022-12-19T01:43:00+09:00,1,�k�k��,2.1,�k,-2.1,68.7,0,0,0,0
2022-12-19T01:44:00+09:00,1,�k�k��,2.1,�k,-2.1,69.1,0,0,0,0
2022-12-19T01:45:00+09:00,0.8,�k�k��,2.1,�k�k��,-2.1,69.3,0,0,0,0
2022-12-19T01:46:00+09:00,0.8,�k�k��,2.1,�k�k��,-2.2,69.1,0,0,0,0
2022-12-19T01:47:00+09:00,0.8,�k�k��,2.1,�k�k��,-2.2,69.4,0,0,0,0
2022-12-19T01:48:00+09:00,0.8,�k�k��,2.1,�k�k��,-2.2,69.3,0,0,0,0
2022-12-19T01:49:00+09:00,0.8,�k,2.1,�k�k��,-2.3,69.4,0,0,0,0
2022-12-19T01:50:00+09:00,0.8,�k�k��,2.1,�k�k��,-2.3,69.6,0,0,0,0
2022-12-19T01:51:00+09:00,0.8,�k�k��,2.1,�k�k��,-2.1,70.3,0,0,0,0
2022-12-19T01:52:00+09:00,0.8,�k��,1.7,�k�k��,-2.1,70.5,0,0,0,0
2022-12-19T01:53:00+09:00,0.7,�k��,1.7,�k�k��,-2.1,70,0,0,0,0
2022-12-19T01:54:00+09:00,0.8,���k��,2.7,��,-2,70,0,0,0,0
2022-12-19T01:55:00+09:00,0.8,���k��,2.7,��,-1.9,70.3,0,0,0,0
2022-12-19T01:56:00+09:00,1,���k��,2.7,��,-2,69.2,0,0,0,0
2022-12-19T01:57:00+09:00,1,�k��,2.7,��,-2,68.4,0,0,0,0
2022-12-19T01:58:00+09:00,0.9,�k��,2.7,��,-2.1,68.1,0,0,0,0
2022-12-19T01:59:00+09:00,0.9,�k��,2.7,��,-1.9,68.9,0,0,0,0
2022-12-19T02:00:00+09:00,1,�k��,2.7,��,-1.9,69,0,0,0,0
2022-12-19T02:01:00+09:00,1.1,�k�k��,2.7,��,-1.9,68.2,0,0,0,0
2022-12-19T02:02:00+09:00,1,�k�k��,2.7,��,-2,67.6,0,0,0,0
2022-12-19T02:03:00+09:00,1.1,�k�k��,2.7,��,-2.1,67.3,0,0,0,0
2022-12-19T02:04:00+09:00,1,�k�k��,2.6,�k�k��,-2,67.9,0,0,0,0
2022-12-19T02:05:00+09:00,0.9,�k�k��,2.6,�k�k��,-2.1,67.7,0,0,0,0
2022-12-19T02:06:00+09:00,0.8,�k�k��,2.6,�k�k��,-2,67.6,0,0,0,0
2022-12-19T02:07:00+09:00,0.7,�k,2.6,�k�k��,-2.1,67.6,0,0,0,0
2022-12-19T02:08:00+09:00,0.7,�k,2.6,�k�k��,-2,67.7,0,0,0,0
2022-12-19T02:09:00+09:00,0.8,�k�k��,2.6,�k�k��,-2,68,0,0,0,0
2022-12-19T02:10:00+09:00,0.7,�k,2.6,�k�k��,-1.8,68.7,0,0,0,0
2022-12-19T02:11:00+09:00,0.7,�k,2.6,�k�k��,-1.9,67.9,0,0,0,0
2022-12-19T02:12:00+09:00,0.7,�k,2.6,�k�k��,-2,67.4,0,0,0,0
2022-12-19T02:13:00+09:00,0.7,�k,3.1,�쐼,-1.9,67.6,0,0,0,0
2022-12-19T02:14:00+09:00,0.8,�k,3.1,�쐼,-1.8,68.4,0,0,0,0
2022-12-19T02:15:00+09:00,0.8,�k,3.1,�쐼,-2,67.1,0,0,0,0
2022-12-19T02:16:00+09:00,0.8,�k,3.1,�쐼,-2.1,67.1,0,0,0,0
2022-12-19T02:17:00+09:00,0.9,�k�k��,3.1,�쐼,-2.2,67.2,0,0,0,0
2022-12-19T02:18:00+09:00,0.9,�k��,3.1,�쐼,-2.2,67.8,0,0,0,0
2022-12-19T02:19:00+09:00,0.8,���k��,3.1,�쐼,-2.2,68.3,0,0,0,0
2022-12-19T02:20:00+09:00,0.9,��,5,��쐼,-2,69.1,0,0,0,0
2022-12-19T02:21:00+09:00,1.1,��,5,��쐼,-1.7,70.3,0,0,0,0
2022-12-19T02:22:00+09:00,1.1,�k�k��,5,��쐼,-1.5,70,0,0,0,0
2022-12-19T02:23:00+09:00,1.1,�k�k��,5,��쐼,-1.5,68.7,0,0,0,0
2022-12-19T02:24:00+09:00,1.1,��쓌,5,��쐼,-1.5,67.3,0,0,0,0
2022-12-19T02:25:00+09:00,1.5,��쐼,5,��쐼,-1.3,67.6,0,0,0,0
2022-12-19T02:26:00+09:00,1.8,��쐼,5,��쐼,-1,67.2,0,0,0,0
2022-12-19T02:27:00+09:00,2,�쐼,5,��쐼,-1,65.6,0,0,0,0
2022-12-19T02:28:00+09:00,2.2,�쐼,5,��쐼,-1,64,0,0,0,0
2022-12-19T02:29:00+09:00,2.5,�쐼,8.4,��쐼,-1,62.8,0,0,0,0
2022-12-19T02:30:00+09:00,2.9,�쐼,8.4,��쐼,-0.9,62.5,0,0,0,0
2022-12-19T02:31:00+09:00,3.1,�쐼,8.4,��쐼,-0.9,62,0,0,0,0
2022-12-19T02:32:00+09:00,3.5,�쐼,8.4,��쐼,-0.9,61.4,0,0,0,0
2022-12-19T02:33:00+09:00,3.8,�쐼,8.4,��쐼,-0.8,61.1,0,0,0,0
2022-12-19T02:34:00+09:00,4,�쐼,8.4,��쐼,-0.8,60.6,0,0,0,0
2022-12-19T02:35:00+09:00,3.8,�쐼,8.4,��쐼,-0.8,60.3,0,0,0,0
2022-12-19T02:36:00+09:00,3.7,�쐼,8.4,��쐼,-0.8,60.2,0,0,0,0
2022-12-19T02:37:00+09:00,3.7,�쐼,8.4,��쐼,-0.9,60.1,0,0,0,0
2022-12-19T02:38:00+09:00,3.8,�쐼,8.4,��쐼,-0.9,60.2,0,0,0,0
2022-12-19T02:39:00+09:00,3.7,�쐼,8.2,��쐼,-0.9,60.3,0,0,0,0
2022-12-19T02:40:00+09:00,3.2,�쐼,8,��쐼,-0.9,60.3,0,0,0,0
2022-12-19T02:41:00+09:00,2.9,�쐼,8,��쐼,-0.9,60.4,0,0,0,0
2022-12-19T02:42:00+09:00,2.6,�쐼,6.5,��쐼,-0.8,60.9,0,0,0,0
2022-12-19T02:43:00+09:00,2.4,�쐼,6.5,��쐼,-0.8,60.7,0,0,0,0
2022-12-19T02:44:00+09:00,2.2,�쐼,4.9,��,-0.8,60.5,0,0,0,0
2022-12-19T02:45:00+09:00,2.1,�쐼,4.9,��,-1.1,59.9,0,0,0,0
2022-12-19T02:46:00+09:00,1.9,���쐼,4.9,��,-1.4,59.8,0,0,0,0
2022-12-19T02:47:00+09:00,1.8,���쐼,4.9,��,-1.6,61.1,0,0,0,0
2022-12-19T02:48:00+09:00,1.8,��,4.9,��,-1.7,63,0,0,0,0
2022-12-19T02:49:00+09:00,1.8,��,5.2,���k��,-1.8,63.9,0,0,0,0
2022-12-19T02:50:00+09:00,2.1,��,5.4,��,-1.9,64.7,0,0,0,0
2022-12-19T02:51:00+09:00,2.1,��,5.4,��,-1.6,66.9,0,0,0,0
2022-12-19T02:52:00+09:00,2.1,���k��,5.4,��,-1.7,66.9,0,0,0,0
2022-12-19T02:53:00+09:00,2.2,���k��,5.4,��,-1.8,66.6,0,0,0,0
2022-12-19T02:54:00+09:00,2.4,���k��,5.4,��,-1.8,67.3,0,0,0,0
2022-12-19T02:55:00+09:00,2.5,���k��,5.4,��,-1.8,67,0,0,0,0
2022-12-19T02:56:00+09:00,2.7,���k��,5.4,��,-1.8,67.4,0,0,0,0
2022-12-19T02:57:00+09:00,2.9,���k��,5.6,�k��,-1.8,67.2,0,0,0,0
2022-12-19T02:58:00+09:00,3,���k��,5.6,�k��,-1.8,67.1,0,0,0,0
2022-12-19T02:59:00+09:00,3.1,���k��,7.5,�쐼,-1.6,68.3,0,0,0,0
2022-12-19T03:00:00+09:00,3,���k��,7.5,�쐼,-1.2,69.5,0,0,0,0
2022-12-19T03:01:00+09:00,2.9,���k��,7.5,�쐼,-1.2,68.4,0,0,0,0
2022-12-19T03:02:00+09:00,2.8,���k��,7.5,�쐼,-1.3,66.6,0,0,0,0
2022-12-19T03:03:00+09:00,2.6,���k��,7.5,�쐼,-1.5,65.2,0,0,0,0
2022-12-19T03:04:00+09:00,2.4,���k��,7.5,�쐼,-1.5,65.1,0,0,0,0
2022-12-19T03:05:00+09:00,2.2,���k��,7.5,�쐼,-1.7,65,0,0,0,0
2022-12-19T03:06:00+09:00,2,�k��,7.5,�쐼,-1.8,64.9,0,0,0,0
2022-12-19T03:07:00+09:00,1.8,�k�k��,7.5,�쐼,-1.8,65.4,0,0,0,0
2022-12-19T03:08:00+09:00,1.7,�k�k��,7.5,�쐼,-1.9,65.9,0,0,0,0
2022-12-19T03:09:00+09:00,1.6,�k�k��,4.5,�쐼,-1.9,66.6,0,0,0,0
2022-12-19T03:10:00+09:00,1.5,�k,3.9,�k�k��,-1.9,66.7,0,0,0,0
2022-12-19T03:11:00+09:00,1.5,�k,3.9,�k�k��,-2,66.8,0,0,0,0
2022-12-19T03:12:00+09:00,1.5,�k,3.9,�k�k��,-2.1,66.9,0,0,0,0
2022-12-19T03:13:00+09:00,1.5,�k,3.9,�k�k��,-1.9,67.6,0,0,0,0
2022-12-19T03:14:00+09:00,1.7,�k�k��,5,�k��,-1.7,68.9,0,0,0,0
2022-12-19T03:15:00+09:00,1.9,�k�k��,5.6,���쐼,-1.4,69.3,0,0,0,0
2022-12-19T03:16:00+09:00,2.1,�k��,5.6,���쐼,-1.6,68,0,0,0,0
2022-12-19T03:17:00+09:00,2.3,�k��,6.1,��,-1.7,66.7,0,0,0,0
2022-12-19T03:18:00+09:00,2.3,���k��,6.1,��,-1.5,67.5,0,0,0,0
2022-12-19T03:19:00+09:00,2.5,���k��,7.1,���쐼,-1.1,68.9,0,0,0,0
2022-12-19T03:20:00+09:00,2.6,��,7.1,���쐼,-0.8,68.7,0,0,0,0
2022-12-19T03:21:00+09:00,2.9,��,7.1,���쐼,-1.1,65.8,0,0,0,0
2022-12-19T03:22:00+09:00,3.1,��,7.1,���쐼,-1.5,63.3,0,0,0,0
2022-12-19T03:23:00+09:00,3.3,��,7.1,���쐼,-1.6,64.1,0,0,0,0
2022-12-19T03:24:00+09:00,3.1,��,7.1,���쐼,-1.4,66.2,0,0,0,0
2022-12-19T03:25:00+09:00,3.3,��,7.5,���쐼,-1.2,67.3,0,0,0,0
2022-12-19T03:26:00+09:00,3.3,��,7.5,���쐼,-0.9,67.6,0,0,0,0
2022-12-19T03:27:00+09:00,3.3,��,7.5,���쐼,-1,66,0,0,0,0
2022-12-19T03:28:00+09:00,3.4,��,7.5,���쐼,-0.9,65.4,0,0,0,0
2022-12-19T03:29:00+09:00,3.4,��,7.5,���쐼,-0.8,65.3,0,0,0,0
2022-12-19T03:30:00+09:00,3.3,��,7.5,���쐼,-0.7,64.8,0,0,0,0
2022-12-19T03:31:00+09:00,3.2,���쐼,7.5,���쐼,-0.7,64.2,0,0,0,0
2022-12-19T03:32:00+09:00,3.3,���쐼,7.5,���쐼,-0.8,63.4,0,0,0,0
2022-12-19T03:33:00+09:00,3.2,��,7.5,���쐼,-1.1,62,0,0,0,0
2022-12-19T03:34:00+09:00,3.2,��,7.5,���쐼,-1.4,62.2,0,0,0,0
2022-12-19T03:35:00+09:00,3.1,��,7.5,���쐼,-1.3,64.1,0,0,0,0
2022-12-19T03:36:00+09:00,3,��,7.5,���쐼,-1.3,65.1,0,0,0,0
2022-12-19T03:37:00+09:00,2.8,��,5.7,���쐼,-1.4,64.9,0,0,0,0
2022-12-19T03:38:00+09:00,2.7,��,5.7,���쐼,-1.4,65.4,0,0,0,0
2022-12-19T03:39:00+09:00,2.6,��,5.6,�k��,-1.5,65.8,0,0,0,0
2022-12-19T03:40:00+09:00,2.6,���k��,5.6,�k��,-1.6,65.3,0,0,0,0
2022-12-19T03:41:00+09:00,2.6,���k��,5.6,�k��,-1.6,65.6,0,0,0,0
2022-12-19T03:42:00+09:00,2.7,���k��,5.6,�k��,-1.4,66.5,0,0,0,0
2022-12-19T03:43:00+09:00,2.7,���k��,5.6,�k��,-1.2,67.7,0,0,0,0
2022-12-19T03:44:00+09:00,2.8,���k��,5.6,�k��,-1.3,66.3,0,0,0,0
2022-12-19T03:45:00+09:00,2.9,��,7.2,��쐼,-1,66.9,0,0,0,0
2022-12-19T03:46:00+09:00,3.1,��,9.3,�쐼,-0.8,67,0,0,0,0
2022-12-19T03:47:00+09:00,3.2,��,9.3,�쐼,-0.7,66.1,0,0,0,0
2022-12-19T03:48:00+09:00,3.1,��,9.3,�쐼,-0.7,65.2,0,0,0,0
2022-12-19T03:49:00+09:00,2.9,��,9.3,�쐼,-0.7,64.4,0,0,0,0
2022-12-19T03:50:00+09:00,2.8,��,9.3,�쐼,-0.9,63.6,0,0,0,0
2022-12-19T03:51:00+09:00,2.8,��,9.3,�쐼,-1.3,62,0,0,0,0
2022-12-19T03:52:00+09:00,2.7,��,9.3,�쐼,-1.4,62.4,0,0,0,0
2022-12-19T03:53:00+09:00,2.7,��,9.3,�쐼,-1.6,63,0,0,0,0
2022-12-19T03:54:00+09:00,2.6,���k��,9.3,�쐼,-1.9,62.4,0,0,0,0
2022-12-19T03:55:00+09:00,2.6,���k��,9.3,�쐼,-2.2,62.8,0,0,0,0
2022-12-19T03:56:00+09:00,2.3,�k��,4.8,���k��,-2.3,64.1,0,0,0,0
2022-12-19T03:57:00+09:00,2.2,�k��,4.8,���k��,-2.5,65,0,0,0,0
2022-12-19T03:58:00+09:00,2.1,�k��,4.8,���k��,-2.4,66.5,0,0,0,0
2022-12-19T03:59:00+09:00,2.2,�k��,4.8,���k��,-2.3,67.6,0,0,0,0
2022-12-19T04:00:00+09:00,2,�k��,4.4,�k�k��,-2.1,69.4,0,0,0,0
2022-12-19T04:01:00+09:00,2,�k��,4.4,�k�k��,-2.2,68.7,0,0,0,0
2022-12-19T04:02:00+09:00,1.9,�k�k��,4.4,�k�k��,-2,69.2,0,0,0,0
2022-12-19T04:03:00+09:00,1.6,�k�k��,3.8,�k�k��,-2.1,68.4,0,0,0,0
2022-12-19T04:04:00+09:00,1.4,�k,3.7,�k�k��,-2.1,68.5,0,0,0,0
2022-12-19T04:05:00+09:00,1.2,�k�k��,3,�k�k��,-2,68.6,0,0,0,0
2022-12-19T04:06:00+09:00,1.1,�k�k��,3,�k�k��,-1.9,68.8,0,0,0,0
2022-12-19T04:07:00+09:00,1,���k��,3,�k�k��,-1.8,68.8,0,0,0,0
2022-12-19T04:08:00+09:00,0.9,���쐼,3,�k�k��,-1.7,68.5,0,0,0,0
2022-12-19T04:09:00+09:00,0.8,��,2.6,�k�k��,-1.8,67.8,0,0,0,0
2022-12-19T04:10:00+09:00,0.8,���k��,2.6,�k�k��,-1.8,67.3,0,0,0,0
2022-12-19T04:11:00+09:00,0.7,���k��,2.5,���k��,-1.8,66.9,0,0,0,0
2022-12-19T04:12:00+09:00,0.6,���k��,2,���k��,-1.9,66.6,0,0,0,0
2022-12-19T04:13:00+09:00,0.6,�k��,1.2,�k�k��,-1.9,66.5,0,0,0,0
2022-12-19T04:14:00+09:00,0.6,�k,2.3,�k�k��,-1.9,66.7,0,0,0,0
2022-12-19T04:15:00+09:00,0.7,�k,2.3,�k�k��,-1.9,66.9,0,0,0,0
2022-12-19T04:16:00+09:00,0.6,�k�k��,2.3,�k�k��,-1.9,67.3,0,0,0,0
2022-12-19T04:17:00+09:00,0.7,�k�k��,2.5,���k��,-1.9,67.6,0,0,0,0
2022-12-19T04:18:00+09:00,0.9,�k�k��,2.7,���k��,-1.9,67.8,0,0,0,0
2022-12-19T04:19:00+09:00,1,�k��,2.7,���k��,-1.8,68.2,0,0,0,0
2022-12-19T04:20:00+09:00,1.1,�k��,2.7,���k��,-1.9,68.3,0,0,0,0
2022-12-19T04:21:00+09:00,1.2,���k��,3.6,���쐼,-1.9,68.5,0,0,0,0
2022-12-19T04:22:00+09:00,1.2,���k��,3.6,���쐼,-1.9,69,0,0,0,0
2022-12-19T04:23:00+09:00,1.3,��,3.6,���쐼,-1.8,69.4,0,0,0,0
2022-12-19T04:24:00+09:00,1.3,��,3.6,���쐼,-1.8,69.4,0,0,0,0
2022-12-19T04:25:00+09:00,1.4,��,3.6,���쐼,-1.8,69.5,0,0,0,0
2022-12-19T04:26:00+09:00,1.5,���쐼,3.7,���쐼,-1.8,69.6,0,0,0,0
2022-12-19T04:27:00+09:00,1.7,���쐼,4.5,���쐼,-1.8,69.4,0,0,0,0
2022-12-19T04:28:00+09:00,1.8,���쐼,4.5,���쐼,-1.9,69.5,0,0,0,0
2022-12-19T04:29:00+09:00,1.9,���쐼,4.5,���쐼,-1.9,69.5,0,0,0,0
2022-12-19T04:30:00+09:00,1.8,���쐼,4.5,���쐼,-1.9,69.4,0,0,0,0
2022-12-19T04:31:00+09:00,1.9,���쐼,4.5,���쐼,-1.9,69.4,0,0,0,0
2022-12-19T04:32:00+09:00,2,���쐼,4.5,���쐼,-2,69.7,0,0,0,0
2022-12-19T04:33:00+09:00,2.1,���쐼,4.5,���쐼,-1.9,69.7,0,0,0,0
2022-12-19T04:34:00+09:00,2.2,���쐼,4.5,���쐼,-1.9,70.2,0,0,0,0
2022-12-19T04:35:00+09:00,2.3,���쐼,4.5,���쐼,-1.8,70.5,0,0,0,0
2022-12-19T04:36:00+09:00,2.3,���쐼,4.5,���쐼,-1.8,70.4,0,0,0,0
2022-12-19T04:37:00+09:00,2.2,���쐼,3.9,���쐼,-1.9,70.4,0,0,0,0
2022-12-19T04:38:00+09:00,2.2,���쐼,3.9,���쐼,-2,70.2,0,0,0,0
2022-12-19T04:39:00+09:00,2.1,���쐼,3.9,���쐼,-1.9,70.6,0,0,0,0
2022-12-19T04:40:00+09:00,2.2,���쐼,3.9,���쐼,-1.6,71.4,0,0,0,0
2022-12-19T04:41:00+09:00,2.1,���쐼,3.9,���쐼,-1.6,71.6,0,0,0,0
2022-12-19T04:42:00+09:00,2.1,���쐼,3.8,���쐼,-1.6,70.7,0,0,0,0
2022-12-19T04:43:00+09:00,1.9,���쐼,3.9,��,-1.6,70.2,0,0,0,0
2022-12-19T04:44:00+09:00,1.8,���쐼,3.9,��,-1.6,69.5,0,0,0,0
2022-12-19T04:45:00+09:00,1.8,���쐼,5.5,�쐼,-1.4,69.5,0,0,0,0
2022-12-19T04:46:00+09:00,1.9,���쐼,5.8,���쐼,-1.3,69.7,0,0,0,0
2022-12-19T04:47:00+09:00,1.8,�쐼,5.8,���쐼,-1.3,68.6,0,0,0,0
2022-12-19T04:48:00+09:00,1.8,�쐼,5.8,���쐼,-1.3,67.6,0,0,0,0
2022-12-19T04:49:00+09:00,1.9,�쐼,5.8,���쐼,-1.3,66.7,0,0,0,0
2022-12-19T04:50:00+09:00,2,��쐼,5.8,���쐼,-1.4,66.2,0,0,0,0
2022-12-19T04:51:00+09:00,2.1,��쐼,5.8,���쐼,-1.3,66,0,0,0,0
2022-12-19T04:52:00+09:00,2.1,��쐼,5.8,���쐼,-1.3,66,0,0,0,0
2022-12-19T04:53:00+09:00,2.2,��쐼,5.8,���쐼,-1.2,65.7,0,0,0,0
2022-12-19T04:54:00+09:00,2.4,��쐼,5.8,���쐼,-1.2,65.1,0,0,0,0
2022-12-19T04:55:00+09:00,2.5,��쐼,5.8,���쐼,-1.2,64.9,0,0,0,0
2022-12-19T04:56:00+09:00,2.4,��,5.6,��,-1.2,65,0,0,0,0
2022-12-19T04:57:00+09:00,2.5,��,5.6,��,-1.2,64.5,0,0,0,0
2022-12-19T04:58:00+09:00,2.6,��,5.6,��,-1.3,64.2,0,0,0,0
2022-12-19T04:59:00+09:00,2.6,��쐼,5.6,��,-1.2,64.4,0,0,0,0
2022-12-19T05:00:00+09:00,2.5,��쐼,5.6,��,-1.2,64.7,0,0,0,0
2022-12-19T05:01:00+09:00,2.6,��쐼,5.6,��,-1.3,64.2,0,0,0,0
2022-12-19T05:02:00+09:00,2.5,��쐼,5.6,��,-1.3,64,0,0,0,0
2022-12-19T05:03:00+09:00,2.5,��,5.6,��,-1.3,64.2,0,0,0,0
2022-12-19T05:04:00+09:00,2.5,��,5.6,��,-1.4,64.3,0,0,0,0
2022-12-19T05:05:00+09:00,2.4,��,5.3,��쓌,-1.3,64.5,0,0,0,0
2022-12-19T05:06:00+09:00,2.6,��,5.3,��쓌,-1.4,64.7,0,0,0,0
2022-12-19T05:07:00+09:00,2.6,��,5.3,��쓌,-1.4,64.6,0,0,0,0
2022-12-19T05:08:00+09:00,2.6,��,5.8,�쐼,-1.3,64.7,0,0,0,0
2022-12-19T05:09:00+09:00,2.7,��,5.8,�쐼,-1.3,64.9,0,0,0,0
2022-12-19T05:10:00+09:00,2.9,��,5.8,�쐼,-1.2,64.7,0,0,0,0
2022-12-19T05:11:00+09:00,3,��,6.4,��,-1.2,64.6,0,0,0,0
2022-12-19T05:12:00+09:00,3.1,��,6.4,��,-1.1,64.3,0,0,0,0
2022-12-19T05:13:00+09:00,3,��,6.4,��,-1.1,64,0,0,0,0
2022-12-19T05:14:00+09:00,3.3,��,7.1,�쐼,-1.1,63.7,0,0,0,0
2022-12-19T05:15:00+09:00,3.4,��,8.8,��쓌,-1.1,63.7,0,0,0,0
2022-12-19T05:16:00+09:00,3.6,��,8.8,��쓌,-1,63.4,0,0,0,0
2022-12-19T05:17:00+09:00,3.7,��쐼,8.8,��쓌,-0.9,63.6,0,0,0,0
2022-12-19T05:18:00+09:00,4,��쐼,8.8,��쓌,-0.9,63,0,0,0,0
2022-12-19T05:19:00+09:00,4,��쐼,8.8,��쓌,-0.9,62.6,0,0,0,0
2022-12-19T05:20:00+09:00,4.3,��쐼,8.8,��쓌,-0.8,62.3,0,0,0,0
2022-12-19T05:21:00+09:00,4.2,��쐼,8.8,��쓌,-0.8,62,0,0,0,0
2022-12-19T05:22:00+09:00,4.5,��쐼,8.8,��쓌,-0.9,61.6,0,0,0,0
2022-12-19T05:23:00+09:00,4.7,��쐼,8.8,��쓌,-0.8,61.8,0,0,0,0
2022-12-19T05:24:00+09:00,4.4,��쐼,8.8,��쓌,-0.8,61.8,0,0,0,0
2022-12-19T05:25:00+09:00,4.2,��쐼,8.4,��쐼,-0.9,61.6,0,0,0,0
2022-12-19T05:26:00+09:00,3.9,��쐼,8.4,��쐼,-0.9,61.6,0,0,0,0
2022-12-19T05:27:00+09:00,3.9,��쐼,8.4,��쐼,-0.8,61.9,0,0,0,0
2022-12-19T05:28:00+09:00,3.5,�쐼,8.4,��쐼,-0.9,62.1,0,0,0,0
2022-12-19T05:29:00+09:00,3.4,�쐼,8.4,��쐼,-0.8,62,0,0,0,0
2022-12-19T05:30:00+09:00,3,�쐼,7.9,��,-0.9,61.9,0,0,0,0
2022-12-19T05:31:00+09:00,3,�쐼,7.9,��,-0.9,62.4,0,0,0,0
2022-12-19T05:32:00+09:00,2.6,�쐼,5.6,���쐼,-1,62.8,0,0,0,0
2022-12-19T05:33:00+09:00,2.6,�쐼,5.6,���쐼,-1,62.8,0,0,0,0
2022-12-19T05:34:00+09:00,2.5,�쐼,5.6,���쐼,-1,62.9,0,0,0,0
2022-12-19T05:35:00+09:00,2.7,�쐼,5.6,���쐼,-1,63.1,0,0,0,0
2022-12-19T05:36:00+09:00,2.8,�쐼,5.8,��쐼,-1,63,0,0,0,0
2022-12-19T05:37:00+09:00,2.9,�쐼,6.1,��쐼,-1,63,0,0,0,0
2022-12-19T05:38:00+09:00,2.9,��쐼,6.1,��쐼,-1,63.1,0,0,0,0
2022-12-19T05:39:00+09:00,2.8,��쐼,6.1,��쐼,-1.1,63.1,0,0,0,0
2022-12-19T05:40:00+09:00,2.8,��쐼,6.1,��쐼,-1.1,63.2,0,0,0,0
2022-12-19T05:41:00+09:00,2.5,��쐼,6.1,��쐼,-1.1,63.2,0,0,0,0
2022-12-19T05:42:00+09:00,2.5,��쐼,6.1,��쐼,-1.1,63.5,0,0,0,0
2022-12-19T05:43:00+09:00,2.3,��쐼,6.1,��쐼,-1.2,63.6,0,0,0,0
2022-12-19T05:44:00+09:00,2.3,��쐼,6.1,��쐼,-1.2,63.7,0,0,0,0
2022-12-19T05:45:00+09:00,2.3,��쐼,6.1,��쐼,-1.1,64,0,0,0,0
2022-12-19T05:46:00+09:00,2.3,��쐼,6.1,��쐼,-1.1,64.2,0,0,0,0
2022-12-19T05:47:00+09:00,2.4,��쐼,8.8,��,-1.1,64.2,0,0,0,0
2022-12-19T05:48:00+09:00,2.6,��쐼,8.8,��,-1.1,64.3,0,0,0,0
2022-12-19T05:49:00+09:00,2.8,��쐼,8.8,��,-1.1,64.1,0,0,0,0
2022-12-19T05:50:00+09:00,2.7,��쐼,8.8,��,-1.1,64,0,0,0,0
2022-12-19T05:51:00+09:00,2.8,��쐼,8.8,��,-1.2,63.9,0,0,0,0
2022-12-19T05:52:00+09:00,3.1,��쐼,8.8,��,-1.3,63.9,0,0,0,0
2022-12-19T05:53:00+09:00,3.2,��쐼,8.8,��,-1.3,64.1,0,0,0,0
2022-12-19T05:54:00+09:00,3.2,��,8.8,��,-1.3,64.2,0,0,0,0
2022-12-19T05:55:00+09:00,3.1,��,8.8,��,-1.3,64.5,0,0,0,0
2022-12-19T05:56:00+09:00,3.1,��,8.8,��,-1.3,64.7,0,0,0,0
2022-12-19T05:57:00+09:00,2.9,��,7.3,��쐼,-1.3,64.8,0,0,0,0
2022-12-19T05:58:00+09:00,2.6,��,6.5,��,-1.3,65,0,0,0,0
2022-12-19T05:59:00+09:00,2.5,��,7.6,��쐼,-1.3,65,0,0,0,0
2022-12-19T06:00:00+09:00,2.8,��,7.6,��쐼,-1.2,65.2,0,0,0,0
2022-12-19T06:01:00+09:00,2.9,��,7.6,��쐼,-1.1,65.1,0,0,0,0
2022-12-19T06:02:00+09:00,2.8,��,7.6,��쐼,-1.1,64.7,0,0,0,0
2022-12-19T06:03:00+09:00,2.7,��,7.6,��쐼,-1.1,64.2,0,0,0,0
2022-12-19T06:04:00+09:00,2.7,��,7.6,��쐼,-1.2,64,0,0,0,0
2022-12-19T06:05:00+09:00,2.8,��,7.6,��쐼,-1.2,64,0,0,0,0
2022-12-19T06:06:00+09:00,3,��,7.7,�쐼,-1.1,64.5,0,0,0,0
2022-12-19T06:07:00+09:00,3.1,��,7.7,�쐼,-1,64.4,0,0,0,0
2022-12-19T06:08:00+09:00,3.3,��쐼,7.7,�쐼,-0.9,64.1,0,0,0,0
2022-12-19T06:09:00+09:00,3.3,��쐼,7.7,�쐼,-0.9,63.8,0,0,0,0
2022-12-19T06:10:00+09:00,3.1,��,7.7,�쐼,-1,63,0,0,0,0
2022-12-19T06:11:00+09:00,3.1,��,7.7,�쐼,-0.9,62.9,0,0,0,0
2022-12-19T06:12:00+09:00,3.3,��,8.2,��쐼,-0.9,62.9,0,0,0,0
2022-12-19T06:13:00+09:00,3.6,��쐼,8.2,��쐼,-0.8,63.2,0,0,0,0
2022-12-19T06:14:00+09:00,3.7,��쐼,8.2,��쐼,-0.8,63,0,0,0,0
2022-12-19T06:15:00+09:00,3.6,��쐼,8.2,��쐼,-0.9,62.3,0,0,0,0
2022-12-19T06:16:00+09:00,3.4,��쐼,8.2,��쐼,-0.9,62.3,0,0,0,0
2022-12-19T06:17:00+09:00,3.3,��,8.2,��쐼,-0.9,62.3,0,0,0,0
2022-12-19T06:18:00+09:00,3.3,��,8.2,��쐼,-0.9,62.4,0,0,0,0
2022-12-19T06:19:00+09:00,3.3,��,8.2,��쐼,-1,62.3,0,0,0,0
2022-12-19T06:20:00+09:00,3.2,��쐼,8.2,��쐼,-0.9,62.6,0,0,0,0
2022-12-19T06:21:00+09:00,3.1,��쐼,8.2,��쐼,-0.9,62.7,0,0,0,0
2022-12-19T06:22:00+09:00,3,��쐼,7.1,�쐼,-1,62.3,0,0,0,0
2022-12-19T06:23:00+09:00,2.8,��,5.4,��쐼,-0.9,62.7,0,0,0,0
2022-12-19T06:24:00+09:00,2.9,��,5.4,��쐼,-1,62.8,0,0,0,0
2022-12-19T06:25:00+09:00,3.2,��쐼,8.2,��,-0.9,62.7,0,0,0,0
2022-12-19T06:26:00+09:00,3.4,��,8.2,��,-0.9,62.8,0,0,0,0
2022-12-19T06:27:00+09:00,3.5,��쐼,8.2,��,-0.9,62.7,0,0,0,0
2022-12-19T06:28:00+09:00,3.6,��쐼,8.2,��,-1,62.4,0,0,0,0
2022-12-19T06:29:00+09:00,3.7,��쐼,8.2,��,-1,62.5,0,0,0,0